EW8655 Weather Reports


Display with metric or nautical units.
time (UTC)temp
F
wind
direction
speed
MPH
gust
MPH
rain 1hr
in
rain 24hr
in
rain mn
in
humidity
%
barometer
mb
20260508093008 42 242 7.0 9.0 0.00 0.00 0.00 99 1012.1
20260508092507 42 238 7.0 9.0 0.00 0.00 0.00 99 1012.1
20260508092008 42 240 7.0 9.0 0.00 0.00 0.00 99 1011.6
20260508091507 42 234 7.0 9.0 0.00 0.00 0.00 99 1012.1
20260508091008 42 250 7.0 9.0 0.00 0.00 0.00 99 1012.1
20260508090507 42 240 7.0 7.0 0.00 0.00 0.00 99 1011.6
20260508090007 42 234 7.0 7.0 0.00 0.00 0.00 99 1012.1
20260508085507 42 229 7.0 7.0 0.00 0.00 0.00 99 1012.1
20260508084508 42 247 7.0 9.0 0.00 0.00 0.00 99 1012.1
20260508084008 42 244 7.0 9.0 0.00 0.00 0.00 99 1012.1
20260508083509 42 239 7.0 9.0 0.00 0.00 0.00 99 1011.6
20260508082507 42 245 7.0 9.0 0.00 0.00 0.00 99 1011.1
20260508081507 42 245 7.0 9.0 0.00 0.00 0.00 99 1011.1
20260508081007 42 249 7.0 9.0 0.00 0.00 0.00 99 1011.1
20260508080507 42 237 8.0 9.0 0.00 0.00 0.00 99 1011.1
20260508080007 42 232 7.0 9.0 0.00 0.00 0.00 99 1011.1
20260508075507 42 247 9.0 9.0 0.00 0.00 0.00 99 1011.1
20260508074506 43 230 7.0 9.0 0.00 0.00 0.00 99 1011.1
20260508073008 43 229 7.0 9.0 0.00 0.00 0.00 98 1011.1
20260508072507 43 228 7.0 7.0 0.00 0.00 0.00 98 1010.6
20260508072007 43 233 7.0 7.0 0.00 0.00 0.00 98 1011.1
20260508071507 43 236 7.0 9.0 0.00 0.00 0.00 98 1011.1
20260508071008 43 227 7.0 9.0 0.00 0.00 0.00 98 1011.1
20260508070507 43 233 7.0 9.0 0.00 0.00 0.00 98 1011.1
20260508070007 44 228 7.0 9.0 0.00 0.00 0.00 98 1011.1
20260508065507 43 234 7.0 9.0 0.00 0.00 0.00 98 1011.1
20260508065008 43 240 7.0 7.0 0.00 0.00 0.00 98 1011.1
20260508064507 43 233 5.0 7.0 0.00 0.00 0.00 97 1011.1
20260508064007 44 231 5.0 9.0 0.00 0.00 0.00 97 1010.7
20260508063507 44 239 7.0 9.0 0.00 0.00 0.00 97 1011.1
20260508063008 44 237 7.0 7.0 0.00 0.00 0.00 97 1011.1
20260508062506 44 234 7.0 7.0 0.00 0.00 0.00 97 1011.1
20260508062007 44 245 6.0 7.0 0.00 0.00 0.00 97 1011.1
20260508061506 44 236 7.0 9.0 0.00 0.00 0.00 97 1011.1
20260508061007 44 234 7.0 9.0 0.00 0.00 0.00 97 1011.1
20260508060508 44 243 7.0 9.0 0.00 0.00 0.00 97 1011.1
20260508060006 44 242 7.0 9.0 0.00 0.00 0.00 97 1011.5
20260508055507 44 225 7.0 9.0 0.00 0.00 0.00 97 1011.5
20260508055007 44 236 7.0 9.0 0.00 0.00 0.00 97 1011.2
20260508054506 44 232 7.0 9.0 0.00 0.00 0.00 97 1011.2
20260508054008 44 235 7.0 9.0 0.00 0.00 0.00 96 1012.1
20260508053508 44 239 7.0 9.0 0.00 0.00 0.00 96 1012.1
20260508053007 44 237 7.0 9.0 0.00 0.00 0.00 96 1012.1
20260508052008 44 223 7.0 7.0 0.00 0.00 0.00 96 1012.1
20260508051507 44 229 5.0 7.0 0.00 0.00 0.00 96 1012.1
20260508051007 44 228 5.0 7.0 0.00 0.00 0.00 96 1012.1
20260508050507 44 242 5.0 7.0 0.00 0.00 0.00 95 1012.1
20260508045506 44 231 7.0 7.0 0.00 0.00 0.00 95 1011.3
20260508045007 44 237 7.0 7.0 0.00 0.00 0.00 95 1011.6
20260508044507 44 227 7.0 7.0 0.00 0.00 0.00 95 1011.1
20260508044007 44 222 5.0 7.0 0.00 0.00 0.00 95 1011.1
20260508043507 44 236 5.0 7.0 0.00 0.00 0.00 95 1011.9
20260508042507 44 227 5.0 7.0 0.00 0.00 0.00 94 1011.8
20260508042008 44 243 5.0 9.0 0.00 0.00 0.00 94 1012.1
20260508041507 44 233 6.0 9.0 0.00 0.00 0.00 94 1011.1
20260508041007 44 234 7.0 9.0 0.00 0.00 0.00 94 1011.1
20260508040507 44 230 7.0 9.0 0.00 0.00 0.00 93 1011.1
20260508040007 44 230 7.0 9.0 0.00 0.00 0.00 93 1011.1
20260508035507 44 244 9.0 12.0 0.00 0.00 0.00 93 1011.1
20260508035007 44 245 9.0 12.0 0.00 0.00 0.00 93 1011.1
20260508034506 44 238 9.0 12.0 0.00 0.00 0.00 93 1011.1
20260508034007 44 247 9.0 9.0 0.00 0.00 0.00 92 1011.1
20260508033508 44 243 9.0 9.0 0.00 0.00 0.00 92 1011.1
20260508032506 44 226 9.0 14.0 0.00 0.00 0.00 91 1011.1
20260508032008 44 213 9.0 14.0 0.00 0.00 0.00 91 1010.8
20260508031506 44 220 9.0 14.0 0.00 0.00 0.00 91 1011.1
20260508031008 45 235 9.0 12.0 0.00 0.00 0.00 90 1010.9
20260508030507 44 227 9.0 9.0 0.00 0.00 0.00 89 1010.9
20260508030007 44 241 7.0 9.0 0.00 0.00 0.00 89 1010.9
20260508025506 44 239 7.0 9.0 0.00 0.00 0.00 88 1011.1
20260508024507 44 260 5.0 9.0 0.00 0.00 0.00 86 1011.1
20260508024007 44 261 7.0 9.0 0.00 0.00 0.00 85 1011.1
20260508023507 44 272 7.0 9.0 0.00 0.00 0.00 85 1011.1
20260508023007 44 285 7.0 12.0 0.00 0.00 0.00 83 1010.4
20260508022506 44 282 7.0 12.0 0.00 0.00 0.00 82 1010.8
20260508022007 45 278 9.0 12.0 0.00 0.00 0.00 81 1010.6
20260508020507 45 310 9.0 12.0 0.00 0.00 0.00 76 1010.1
20260508015507 45 280 9.0 12.0 0.00 0.00 0.00 73 1010.8
20260508015007 46 284 9.0 14.0 0.00 0.00 0.00 73 1010.1
20260508014506 46 282 12.0 16.0 0.00 0.00 0.00 71 1010.1
20260508014007 46 279 12.0 16.0 0.00 0.00 0.00 70 1010.1
20260508013507 47 275 12.0 14.0 0.00 0.00 0.00 69 1010.1
20260508013007 48 292 11.0 14.0 0.00 0.00 0.00 68 1010.1
20260508012506 48 310 7.0 12.0 0.00 0.00 0.00 67 1010.1
20260508012008 48 285 8.0 9.0 0.00 0.00 0.00 67 1010.1
20260508011507 48 276 7.0 7.0 0.00 0.00 0.00 67 1010.1
20260508011008 48 302 5.0 7.0 0.00 0.00 0.00 67 1010.1
20260508010507 48 278 6.0 7.0 0.00 0.00 0.00 66 1010.1
20260508010007 48 280 7.0 7.0 0.00 0.00 0.00 66 1009.5
20260508005507 48 268 5.0 7.0 0.00 0.00 0.00 65 1010.1
20260508004506 49 268 5.0 7.0 0.00 0.00 0.00 65 1010.0
20260508004007 49 276 5.0 7.0 0.00 0.00 0.00 65 1009.7
20260508003507 49 289 5.0 7.0 0.00 0.00 0.00 65 1009.1
20260508003007 49 291 5.0 7.0 0.00 0.00 0.00 65 1009.1
20260508002506 49 279 5.0 7.0 0.00 0.00 0.00 65 1009.1
20260508002007 49 279 3.0 5.0 0.00 0.00 0.00 64 1009.1
20260508001506 49 358 4.0 5.0 0.00 0.00 0.00 64 1009.1
20260508001007 49 289 5.0 7.0 0.00 0.00 0.00 64 1009.1
20260508000507 49 278 5.0 7.0 0.00 0.00 0.00 64 1009.1
20260508000007 49 269 5.0 7.0 0.00 0.00 0.00 63 1009.1
20260507235506 49 290 5.0 7.0 0.00 0.00 0.00 63 1009.1
20260507234507 49 285 5.0 7.0 0.00 0.00 0.00 63 1009.1
20260507234007 49 285 5.0 7.0 0.00 0.00 0.00 62 1009.1
20260507233508 49 286 5.0 7.0 0.00 0.00 0.00 62 1009.1
20260507233007 49 300 5.0 7.0 0.00 0.00 0.00 63 1009.1
20260507232506 49 258 3.0 5.0 0.00 0.00 0.00 63 1009.1
20260507232008 50 318 2.0 5.0 0.00 0.00 0.00 64 1009.1
20260507231506 50 275 0.0 5.0 0.00 0.00 0.00 65 1009.1
20260507231007 50 281 2.0 5.0 0.00 0.00 0.00 66 1009.1
20260507230507 50 343 0.0 5.0 0.00 0.00 0.00 67 1009.1
20260507230007 50 300 2.0 5.0 0.00 0.00 0.00 67 1009.1
20260507225506 50 336 2.0 7.0 0.00 0.00 0.00 67 1009.1
20260507225007 50 352 2.0 7.0 0.00 0.00 0.00 67 1009.1
20260507224507 49 26 4.0 7.0 0.00 0.00 0.00 68 1009.1
20260507224008 48 14 5.0 9.0 0.00 0.00 0.00 68 1009.1
20260507223007 48 38 7.0 9.0 0.00 0.00 0.00 67 1009.1
20260507221007 50 345 2.0 5.0 0.00 0.00 0.00 64 1009.1
20260507220507 50 309 2.0 5.0 0.00 0.00 0.00 64 1009.1
20260507220006 50 350 2.0 7.0 0.00 0.00 0.00 66 1009.1
20260507215506 50 12 3.0 7.0 0.00 0.00 0.00 65 1009.1
20260507215007 50 22 3.0 7.0 0.00 0.00 0.00 64 1009.1
20260507214506 50 295 2.0 7.0 0.00 0.00 0.00 64 1009.1
20260507213507 51 332 2.0 7.0 0.00 0.00 0.00 65 1009.1
20260507213007 50 318 2.0 7.0 0.00 0.00 0.00 67 1009.1
20260507212506 50 311 2.0 7.0 0.00 0.00 0.00 67 1009.1
20260507212007 49 359 2.0 7.0 0.00 0.00 0.00 68 1009.1
20260507211506 49 345 5.0 7.0 0.00 0.00 0.00 68 1009.1
20260507211007 49 31 5.0 7.0 0.00 0.00 0.00 69 1009.1
20260507210507 49 16 2.0 5.0 0.00 0.00 0.00 68 1009.1
20260507210006 49 40 2.0 5.0 0.00 0.00 0.00 67 1009.1
20260507205506 49 23 0.0 5.0 0.00 0.00 0.00 67 1009.1
20260507205007 49 64 2.0 2.0 0.00 0.00 0.00 67 1009.1
20260507204506 49 36 0.0 2.0 0.00 0.00 0.00 67 1009.1
20260507204007 49 46 1.0 5.0 0.00 0.00 0.00 67 1009.1
20260507203506 49 45 3.0 5.0 0.00 0.00 0.00 67 1009.1
20260507203007 49 84 2.0 5.0 0.00 0.00 0.00 67 1009.1
20260507202506 49 64 2.0 5.0 0.00 0.00 0.00 68 1009.1
20260507201006 49 63 2.0 5.0 0.00 0.00 0.00 68 1009.1
20260507200507 49 57 2.0 5.0 0.00 0.00 0.00 68 1009.1
20260507200006 49 55 2.0 5.0 0.00 0.00 0.00 67 1009.1
20260507195505 49 62 2.0 5.0 0.00 0.00 0.00 67 1009.1
20260507195006 49 52 2.0 5.0 0.00 0.00 0.00 67 1009.1
20260507194506 49 12 2.0 5.0 0.00 0.00 0.00 67 1009.1
20260507193507 49 21 0.0 5.0 0.00 0.00 0.00 69 1010.1
20260507193007 48 41 0.0 5.0 0.00 0.00 0.00 70 1010.1
20260507192007 47 93 5.0 7.0 0.00 0.00 0.00 70 1010.1
20260507191506 48 90 3.0 5.0 0.00 0.00 0.00 71 1010.1
20260507190507 48 90 3.0 5.0 0.00 0.00 0.00 72 1010.1
20260507190006 47 84 5.0 5.0 0.00 0.00 0.00 72 1010.1
20260507185506 47 78 5.0 5.0 0.00 0.00 0.00 72 1010.1
20260507184506 47 45 2.0 5.0 0.00 0.00 0.00 72 1010.1
20260507184007 47 49 2.0 5.0 0.00 0.00 0.00 71 1010.1
20260507183507 47 54 2.0 5.0 0.00 0.00 0.00 71 1010.1
20260507183006 47 47 5.0 5.0 0.00 0.00 0.00 71 1010.1
20260507182506 47 52 5.0 5.0 0.00 0.00 0.00 71 1010.1
20260507182007 46 35 5.0 7.0 0.00 0.00 0.00 71 1010.1
20260507181506 46 24 5.0 7.0 0.00 0.00 0.00 71 1010.1
20260507181006 46 21 5.0 7.0 0.00 0.00 0.00 71 1010.1
20260507180507 46 23 5.0 7.0 0.00 0.00 0.00 71 1010.1
20260507180006 47 19 5.0 7.0 0.00 0.00 0.00 71 1010.1
20260507175506 47 31 5.0 7.0 0.00 0.00 0.00 71 1010.1
20260507175007 47 31 5.0 5.0 0.00 0.00 0.00 71 1010.1
20260507174505 47 26 5.0 5.0 0.00 0.00 0.00 71 1010.1
20260507173006 47 13 5.0 9.0 0.00 0.00 0.00 72 1010.1
20260507172505 47 15 5.0 9.0 0.00 0.00 0.00 71 1010.1
20260507170506 46 18 7.0 9.0 0.00 0.00 0.00 72 1010.1
20260507170006 47 18 5.0 9.0 0.00 0.00 0.00 72 1010.9
20260507165505 46 0 6.0 12.0 0.00 0.00 0.00 72 1011.1
20260507165006 47 322 5.0 12.0 0.00 0.00 0.00 72 1011.1
20260507164505 47 341 5.0 9.0 0.00 0.00 0.00 72 1011.1
20260507164007 47 340 5.0 7.0 0.00 0.00 0.00 72 1011.1
20260507163506 47 330 3.0 7.0 0.00 0.00 0.00 72 1011.1
20260507163007 47 26 5.0 9.0 0.00 0.00 0.00 72 1011.1
20260507162506 47 350 7.0 9.0 0.00 0.00 0.00 72 1011.1
20260507162006 47 13 6.0 9.0 0.00 0.00 0.00 72 1011.3
20260507161505 47 11 7.0 9.0 0.00 0.00 0.00 72 1011.1
20260507161007 46 8 7.0 9.0 0.00 0.00 0.00 72 1011.6
20260507160506 47 20 7.0 9.0 0.00 0.00 0.00 72 1012.1
20260507160006 47 22 6.0 9.0 0.00 0.00 0.00 72 1012.1
20260507154506 47 16 7.0 9.0 0.00 0.00 0.00 71 1012.1
20260507154008 47 13 7.0 9.0 0.00 0.00 0.00 71 1012.1
20260507153506 47 26 7.0 9.0 0.00 0.00 0.00 71 1012.1
20260507153006 47 13 7.0 12.0 0.00 0.00 0.00 71 1012.1
20260507152007 47 19 7.0 9.0 0.00 0.00 0.00 70 1012.1
20260507151506 48 14 5.0 7.0 0.00 0.00 0.00 69 1012.1
20260507151006 48 19 5.0 5.0 0.00 0.00 0.00 69 1012.1
20260507150506 48 36 5.0 5.0 0.00 0.00 0.00 69 1012.1
20260507150006 48 38 5.0 5.0 0.00 0.00 0.00 69 1012.1
20260507145505 48 34 2.0 5.0 0.00 0.00 0.00 70 1012.1
20260507145007 48 29 4.0 5.0 0.00 0.00 0.00 70 1012.1
20260507144506 47 14 5.0 7.0 0.00 0.00 0.00 69 1012.1
20260507143506 47 32 5.0 7.0 0.00 0.00 0.00 69 1012.1
20260507143006 47 19 5.0 9.0 0.00 0.00 0.00 69 1012.1
20260507142505 47 15 5.0 9.0 0.00 0.00 0.00 69 1012.1
20260507142005 48 329 5.0 9.0 0.00 0.00 0.00 69 1012.1
20260507141505 48 25 5.0 7.0 0.00 0.00 0.00 69 1012.1
20260507141007 48 30 3.0 7.0 0.00 0.00 0.00 69 1012.1
20260507140506 49 31 2.0 5.0 0.00 0.00 0.00 70 1012.1
20260507140006 48 357 2.0 7.0 0.00 0.00 0.00 70 1012.1
20260507135006 47 235 4.0 7.0 0.00 0.00 0.00 71 1012.1
20260507134506 47 263 5.0 7.0 0.00 0.00 0.00 72 1012.1
20260507134006 46 295 5.0 7.0 0.00 0.00 0.00 72 1012.1
20260507133506 46 243 5.0 7.0 0.00 0.00 0.00 72 1012.1
20260507133006 46 265 5.0 7.0 0.00 0.00 0.00 72 1012.1
20260507132506 46 295 4.0 7.0 0.00 0.00 0.00 73 1012.1
20260507132007 45 332 5.0 7.0 0.00 0.00 0.00 73 1012.2
20260507131505 45 271 3.0 7.0 0.00 0.00 0.00 73 1012.6
20260507131006 45 296 5.0 7.0 0.00 0.00 0.00 73 1013.1
20260507130506 45 279 5.0 7.0 0.00 0.00 0.00 73 1013.0
20260507130005 45 283 5.0 7.0 0.00 0.00 0.00 73 1013.0
20260507125506 44 294 5.0 7.0 0.00 0.00 0.00 73 1013.1
20260507125006 44 266 5.0 9.0 0.00 0.00 0.00 73 1012.6
20260507124006 44 290 6.0 9.0 0.00 0.00 0.00 73 1012.1
20260507123506 44 279 5.0 9.0 0.00 0.00 0.00 73 1012.6
20260507123006 44 310 5.0 7.0 0.00 0.00 0.00 73 1012.1
20260507122505 44 295 5.0 9.0 0.00 0.00 0.00 72 1012.5
20260507122006 44 327 5.0 9.0 0.00 0.00 0.00 73 1013.1
20260507121506 44 300 6.0 7.0 0.00 0.00 0.00 73 1012.6
20260507120506 44 314 5.0 9.0 0.00 0.00 0.00 75 1013.1
20260507120006 44 314 5.0 7.0 0.00 0.00 0.00 77 1013.1
20260507115505 44 347 2.0 7.0 0.00 0.00 0.00 78 1012.1
20260507114006 44 295 5.0 7.0 0.00 0.00 0.00 85 1012.1
20260507113506 43 310 4.0 5.0 0.00 0.00 0.00 86 1012.1
20260507112505 43 280 2.0 5.0 0.00 0.00 0.00 87 1012.1
20260507112006 43 302 2.0 5.0 0.00 0.00 0.00 88 1012.1
20260507111506 43 272 3.0 5.0 0.00 0.00 0.00 88 1012.1
20260507111007 42 253 5.0 5.0 0.00 0.00 0.00 89 1012.1
20260507110505 42 271 5.0 7.0 0.00 0.00 0.00 89 1012.1
20260507110006 42 262 5.0 7.0 0.00 0.00 0.00 89 1012.1
20260507105006 42 265 6.0 7.0 0.00 0.00 0.00 89 1012.1
20260507104507 42 269 6.0 7.0 0.00 0.00 0.00 89 1012.1
20260507104008 42 270 5.0 7.0 0.00 0.00 0.00 89 1012.1
20260507103508 42 265 5.0 5.0 0.00 0.00 0.00 89 1012.1
20260507103008 42 266 5.0 5.0 0.00 0.00 0.00 89 1012.1
20260507102508 42 275 5.0 7.0 0.00 0.00 0.00 89 1012.1
20260507102008 42 277 5.0 7.0 0.00 0.00 0.00 89 1012.1
20260507101507 42 267 6.0 7.0 0.00 0.00 0.00 89 1012.1
20260507101008 42 259 7.0 7.0 0.00 0.00 0.00 89 1012.1
20260507100508 42 263 5.0 7.0 0.00 0.00 0.00 89 1012.1
20260507095008 42 257 7.0 7.0 0.00 0.00 0.00 89 1012.1
20260507094507 42 261 5.0 7.0 0.00 0.00 0.00 89 1012.1
20260507093508 42 252 5.0 7.0 0.00 0.00 0.00 89 1012.1